QPF
0.00 0.00 0.00 0.00 0.01 0.04 0.04 0.01 0.00 0.00 0.00 0.00 0.00 0.00 0.01 0.03 0.07 0.17 0.06 0.00 0.00 0.00 0.00 0.00 0.00 0.01 0.02 0.02 0.02 0.03 0.03 0.02 0.01 0.01 0.01 0.01 0.01 0.01 0.01 0.01 0.02 0.02 0.02 0.01 0.01 0.02 0.02 0.01 0.01
0.00 0.00 0.00 0.00 0.02 0.03 0.03 0.02 0.01 0.00 0.00 0.00 0.00 0.00 0.01 0.02 0.01 0.02 0.01 0.01 0.00 0.00 0.00 0.00 0.00 0.01 0.02 0.02 0.02 0.02 0.02 0.02 0.02 0.01 0.01 0.01 0.01 0.01 0.01 0.01 0.01 0.01 0.01 0.01 0.01 0.01 0.01 0.01 0.01
0.00 0.00 0.00 0.00 0.00 0.01 0.00 0.01 0.00 0.00 0.00 0.00 0.00 0.00 0.01 0.03 0.01 0.00 0.01 0.00 0.01 0.00 0.00 0.00 0.00 0.01 0.02 0.02 0.02 0.02 0.03 0.02 0.02 0.01 0.01 0.01 0.01 0.01 0.01 0.01 0.01 0.01 0.01 0.01 0.01 0.01 0.01 0.01 0.01
0.00 0.00 0.00 0.00 0.00 0.00 0.00 0.00 0.00 0.00 0.00 0.00 0.00 0.01 0.01 0.01 0.01 0.01 0.01 0.01 0.01 0.00 0.00 0.00 0.00 0.01 0.01 0.02 0.02 0.03 0.03 0.03 0.02 0.01 0.01 0.01 0.01 0.01 0.01 0.01 0.01 0.01 0.01 0.01 0.01 0.01 0.01 0.01 0.01
0.00 0.00 0.00 0.00 0.00 0.00 0.00 0.00 0.00 0.00 0.00 0.00 0.01 0.05 0.03 0.01 0.00 0.01 0.02 0.02 0.02 0.01 0.01 0.01 0.00 0.01 0.01 0.02 0.03 0.03 0.03 0.02 0.02 0.01 0.01 0.01 0.01 0.01 0.01 0.01 0.01 0.01 0.01 0.00 0.00 0.00 0.00 0.00 0.01
0.00 0.00 0.00 0.00 0.00 0.00 0.00 0.00 0.00 0.00 0.01 0.00 0.01 0.05 0.05 0.03 0.04 0.05 0.04 0.05 0.06 0.04 0.02 0.02 0.01 0.02 0.03 0.04 0.04 0.03 0.02 0.02 0.02 0.01 0.01 0.01 0.01 0.01 0.01 0.01 0.01 0.01 0.01 0.01 0.00 0.00 0.00 0.00 0.00
0.00 0.00 0.00 0.00 0.00 0.00 0.00 0.00 0.00 0.00 0.01 0.01 0.02 0.07 0.05 0.07 0.05 0.06 0.03 0.05 0.09 0.13 0.06 0.04 0.02 0.01 0.02 0.04 0.05 0.04 0.02 0.02 0.02 0.02 0.01 0.02 0.02 0.01 0.01 0.01 0.01 0.01 0.01 0.01 0.01 0.00 0.00 0.00 0.00
0.00 0.00 0.00 0.00 0.00 0.00 0.00 0.00 0.00 0.00 0.01 0.01 0.02 0.08 0.09 0.08 0.03 0.03 0.04 0.08 0.12 0.11 0.09 0.07 0.05 0.04 0.02 0.01 0.03 0.05 0.04 0.03 0.03 0.03 0.02 0.02 0.02 0.02 0.02 0.01 0.01 0.01 0.01 0.01 0.00 0.00 0.00 0.00 0.00
0.00 0.00 0.00 0.00 0.00 0.00 0.00 0.00 0.00 0.00 0.01 0.01 0.02 0.03 0.09 0.06 0.04 0.05 0.06 0.11 0.19 0.16 0.11 0.11 0.08 0.05 0.05 0.04 0.02 0.04 0.05 0.06 0.05 0.05 0.03 0.03 0.06 0.07 0.06 0.04 0.02 0.01 0.01 0.01 0.01 0.01 0.01 0.01 0.01
0.00 0.00 0.00 0.00 0.00 0.00 0.00 0.00 0.01 0.00 0.01 0.05 0.04 0.03 0.03 0.05 0.07 0.08 0.08 0.10 0.17 0.20 0.12 0.10 0.09 0.06 0.06 0.07 0.07 0.09 0.09 0.09 0.10 0.12 0.08 0.09 0.12 0.13 0.11 0.08 0.04 0.02 0.02 0.03 0.03 0.02 0.02 0.03 0.05
0.00 0.00 0.00 0.00 0.00 0.00 0.00 0.00 0.00 0.00 0.05 0.12 0.10 0.09 0.04 0.05 0.09 0.10 0.10 0.11 0.13 0.14 0.13 0.11 0.10 0.09 0.08 0.10 0.11 0.12 0.15 0.15 0.13 0.14 0.13 0.14 0.11 0.09 0.10 0.11 0.10 0.07 0.07 0.10 0.09 0.05 0.06 0.06 0.08
0.00 0.00 0.00 0.00 0.00 0.00 0.00 0.00 0.00 0.00 0.03 0.05 0.07 0.07 0.05 0.08 0.10 0.11 0.14 0.19 0.20 0.15 0.13 0.13 0.11 0.11 0.11 0.09 0.11 0.11 0.11 0.11 0.12 0.14 0.12 0.15 0.13 0.13 0.13 0.14 0.13 0.12 0.12 0.14 0.10 0.09 0.07 0.06 0.07
0.00 0.00 0.00 0.00 0.00 0.00 0.00 0.00 0.00 0.00 0.00 0.01 0.01 0.02 0.06 0.10 0.14 0.16 0.20 0.22 0.23 0.21 0.17 0.12 0.11 0.13 0.18 0.20 0.15 0.12 0.12 0.11 0.12 0.13 0.11 0.12 0.12 0.12 0.13 0.11 0.10 0.09 0.11 0.12 0.10 0.08 0.08 0.06 0.06
0.00 0.00 0.00 0.00 0.00 0.00 0.00 0.00 0.00 0.00 0.00 0.00 0.01 0.02 0.07 0.11 0.13 0.16 0.22 0.29 0.22 0.17 0.15 0.12 0.10 0.11 0.15 0.21 0.18 0.14 0.11 0.11 0.11 0.11 0.09 0.09 0.11 0.10 0.11 0.12 0.10 0.09 0.10 0.11 0.10 0.08 0.08 0.07 0.06
0.00 0.00 0.01 0.01 0.02 0.00 0.00 0.01 0.01 0.02 0.01 0.00 0.01 0.02 0.05 0.09 0.11 0.12 0.19 0.22 0.25 0.17 0.14 0.11 0.08 0.08 0.11 0.15 0.15 0.10 0.08 0.09 0.10 0.11 0.09 0.07 0.07 0.08 0.09 0.09 0.09 0.07 0.07 0.08 0.08 0.08 0.09 0.07 0.06
0.00 0.00 0.01 0.02 0.03 0.01 0.01 0.03 0.01 0.01 0.00 0.00 0.01 0.02 0.04 0.07 0.10 0.11 0.14 0.20 0.21 0.18 0.17 0.14 0.08 0.09 0.10 0.15 0.14 0.10 0.07 0.07 0.08 0.07 0.07 0.05 0.06 0.05 0.06 0.05 0.04 0.03 0.04 0.05 0.05 0.07 0.08 0.07 0.06
0.01 0.01 0.01 0.01 0.01 0.00 0.00 0.02 0.03 0.00 0.01 0.01 0.02 0.03 0.04 0.06 0.10 0.11 0.13 0.17 0.20 0.23 0.22 0.15 0.14 0.12 0.11 0.12 0.11 0.09 0.08 0.07 0.05 0.05 0.04 0.04 0.03 0.03 0.04 0.05 0.05 0.05 0.05 0.04 0.04 0.05 0.06 0.06 0.06
0.01 0.00 0.01 0.00 0.00 0.00 0.00 0.02 0.02 0.01 0.01 0.02 0.04 0.06 0.08 0.09 0.10 0.09 0.10 0.13 0.17 0.22 0.24 0.15 0.12 0.12 0.12 0.12 0.10 0.09 0.09 0.07 0.05 0.03 0.04 0.04 0.03 0.02 0.03 0.04 0.04 0.03 0.04 0.04 0.04 0.04 0.03 0.03 0.03
0.00 0.00 0.00 0.00 0.00 0.00 0.00 0.00 0.00 0.00 0.01 0.02 0.03 0.06 0.08 0.09 0.09 0.09 0.08 0.11 0.15 0.21 0.21 0.16 0.12 0.12 0.13 0.13 0.10 0.09 0.10 0.09 0.05 0.03 0.03 0.04 0.04 0.04 0.03 0.04 0.04 0.03 0.03 0.04 0.04 0.04 0.03 0.02 0.01
0.00 0.00 0.00 0.01 0.00 0.00 0.00 0.00 0.00 0.01 0.00 0.01 0.03 0.04 0.06 0.06 0.08 0.09 0.07 0.09 0.15 0.16 0.18 0.14 0.11 0.13 0.13 0.13 0.12 0.11 0.11 0.08 0.05 0.04 0.03 0.03 0.03 0.03 0.02 0.02 0.02 0.03 0.04 0.06 0.05 0.04 0.04 0.02 0.01
0.00 0.00 0.00 0.00 0.00 0.00 0.01 0.01 0.02 0.04 0.01 0.00 0.01 0.03 0.05 0.05 0.06 0.06 0.05 0.07 0.16 0.12 0.13 0.11 0.11 0.11 0.12 0.13 0.10 0.10 0.09 0.07 0.06 0.04 0.03 0.03 0.02 0.02 0.02 0.02 0.02 0.03 0.03 0.05 0.04 0.03 0.03 0.02 0.01
0.00 0.00 0.00 0.00 0.00 0.01 0.02 0.04 0.03 0.02 0.01 0.00 0.01 0.02 0.02 0.03 0.04 0.04 0.05 0.07 0.13 0.12 0.09 0.09 0.07 0.08 0.08 0.09 0.10 0.07 0.06 0.06 0.05 0.04 0.03 0.03 0.02 0.02 0.01 0.02 0.01 0.01 0.01 0.02 0.02 0.01 0.01 0.01 0.01
0.00 0.00 0.00 0.00 0.00 0.01 0.04 0.03 0.02 0.02 0.04 0.01 0.01 0.01 0.02 0.02 0.03 0.03 0.04 0.05 0.06 0.06 0.07 0.06 0.05 0.06 0.07 0.08 0.08 0.07 0.06 0.05 0.03 0.03 0.03 0.02 0.02 0.02 0.01 0.01 0.01 0.01 0.01 0.01 0.01 0.01 0.01 0.01 0.01
0.00 0.00 0.00 0.01 0.03 0.04 0.03 0.02 0.02 0.03 0.06 0.01 0.00 0.00 0.03 0.02 0.02 0.02 0.03 0.04 0.04 0.05 0.05 0.06 0.05 0.06 0.07 0.06 0.06 0.06 0.05 0.04 0.02 0.02 0.02 0.01 0.01 0.01 0.01 0.01 0.01 0.01 0.01 0.01 0.01 0.01 0.00 0.00 0.00
0.00 0.00 0.03 0.09 0.15 0.14 0.06 0.02 0.01 0.00 0.00 0.00 0.00 0.00 0.00 0.01 0.01 0.01 0.02 0.03 0.03 0.03 0.04 0.04 0.05 0.05 0.04 0.04 0.04 0.04 0.04 0.03 0.02 0.02 0.01 0.01 0.00 0.00 0.00 0.00 0.01 0.01 0.01 0.01 0.00 0.00 0.00 0.00 0.00
0.00 0.00 0.03 0.07 0.08 0.09 0.06 0.03 0.01 0.00 0.00 0.00 0.00 0.00 0.00 0.00 0.00 0.00 0.00 0.01 0.02 0.03 0.04 0.04 0.05 0.04 0.03 0.03 0.03 0.03 0.02 0.01 0.01 0.01 0.00 0.00 0.00 0.00 0.00 0.00 0.00 0.00 0.00 0.00 0.00 0.00 0.00 0.00 0.00
0.00 0.00 0.00 0.01 0.02 0.03 0.04 0.03 0.02 0.00 0.00 0.00 0.00 0.00 0.00 0.00 0.00 0.00 0.00 0.01 0.02 0.03 0.03 0.03 0.03 0.03 0.03 0.03 0.03 0.02 0.01 0.02 0.01 0.00 0.00 0.00 0.00 0.00 0.00 0.00 0.00 0.00 0.00 0.00 0.00 0.00 0.00 0.00 0.00
0.00 0.00 0.00 0.01 0.02 0.03 0.04 0.05 0.06 0.02 0.00 0.00 0.00 0.00 0.00 0.00 0.00 0.00 0.00 0.00 0.01 0.02 0.03 0.03 0.03 0.02 0.03 0.04 0.04 0.02 0.02 0.02 0.01 0.01 0.00 0.00 0.00 0.00 0.00 0.00 0.00 0.00 0.00 0.00 0.00 0.00 0.00 0.00 0.00
0.00 0.00 0.01 0.02 0.01 0.02 0.07 0.09 0.06 0.03 0.01 0.01 0.00 0.00 0.00 0.00 0.00 0.00 0.00 0.00 0.01 0.01 0.02 0.03 0.03 0.03 0.03 0.03 0.03 0.03 0.02 0.01 0.00 0.00 0.00 0.00 0.00 0.00 0.00 0.00 0.00 0.00 0.00 0.00 0.00 0.00 0.00 0.00 0.00
0.01 0.00 0.00 0.01 0.01 0.01 0.03 0.05 0.03 0.02 0.01 0.01 0.00 0.00 0.00 0.00 0.00 0.00 0.00 0.00 0.01 0.01 0.01 0.03 0.02 0.02 0.02 0.02 0.02 0.02 0.02 0.01 0.01 0.00 0.00 0.00 0.00 0.00 0.00 0.00 0.00 0.00 0.00 0.00 0.00 0.00 0.00 0.00 0.00
MSLP
1007.16 1007.70 1008.34 1008.93 1009.35 1009.51 1009.39 1009.03 1008.55 1008.08 1007.75 1007.62 1007.72 1008.00 1008.35 1008.68 1008.89 1008.94 1008.86 1008.74 1008.67 1008.76 1009.09 1009.65 1010.41 1011.26 1012.08 1012.77 1013.28 1013.59 1013.74 1013.81 1013.87 1014.00 1014.23 1014.54 1014.89 1015.23 1015.51 1015.70 1015.79 1015.82 1015.83 1015.84 1015.89 1015.96 1016.04 1016.09 1016.09
1007.43 1008.06 1008.71 1009.24 1009.52 1009.50 1009.19 1008.64 1008.00 1007.41 1007.00 1006.83 1006.92 1007.19 1007.56 1007.91 1008.17 1008.30 1008.33 1008.33 1008.42 1008.67 1009.14 1009.82 1010.66 1011.54 1012.36 1013.03 1013.50 1013.79 1013.93 1014.01 1014.10 1014.27 1014.52 1014.84 1015.19 1015.50 1015.73 1015.87 1015.93 1015.94 1015.95 1015.98 1016.05 1016.15 1016.25 1016.30 1016.28
1007.80 1008.48 1009.10 1009.52 1009.64 1009.42 1008.90 1008.18 1007.40 1006.72 1006.26 1006.07 1006.15 1006.43 1006.81 1007.19 1007.48 1007.68 1007.80 1007.94 1008.17 1008.58 1009.19 1009.99 1010.90 1011.82 1012.64 1013.29 1013.74 1014.01 1014.15 1014.25 1014.38 1014.58 1014.86 1015.18 1015.51 1015.78 1015.96 1016.05 1016.06 1016.05 1016.06 1016.11 1016.21 1016.33 1016.44 1016.49 1016.46
1008.16 1008.85 1009.40 1009.68 1009.63 1009.23 1008.55 1007.70 1006.84 1006.12 1005.65 1005.48 1005.57 1005.86 1006.24 1006.62 1006.93 1007.16 1007.36 1007.60 1007.96 1008.50 1009.24 1010.14 1011.11 1012.06 1012.89 1013.52 1013.96 1014.22 1014.37 1014.50 1014.66 1014.90 1015.20 1015.53 1015.83 1016.06 1016.20 1016.24 1016.22 1016.19 1016.19 1016.26 1016.37 1016.52 1016.64 1016.69 1016.65
1008.44 1009.08 1009.52 1009.66 1009.45 1008.91 1008.12 1007.22 1006.35 1005.67 1005.25 1005.13 1005.26 1005.56 1005.93 1006.28 1006.57 1006.81 1007.04 1007.35 1007.80 1008.44 1009.28 1010.26 1011.29 1012.25 1013.07 1013.69 1014.11 1014.36 1014.53 1014.69 1014.89 1015.16 1015.49 1015.83 1016.13 1016.34 1016.44 1016.45 1016.41 1016.36 1016.37 1016.44 1016.57 1016.72 1016.85 1016.89 1016.84
1008.57 1009.11 1009.42 1009.42 1009.08 1008.45 1007.63 1006.76 1005.97 1005.40 1005.10 1005.07 1005.25 1005.57 1005.91 1006.22 1006.46 1006.66 1006.88 1007.21 1007.71 1008.42 1009.32 1010.35 1011.40 1012.37 1013.17 1013.76 1014.16 1014.41 1014.58 1014.76 1015.00 1015.32 1015.68 1016.04 1016.35 1016.55 1016.65 1016.65 1016.60 1016.55 1016.56 1016.64 1016.77 1016.93 1017.05 1017.09 1017.03
1008.51 1008.92 1009.07 1008.93 1008.51 1007.85 1007.08 1006.32 1005.69 1005.30 1005.16 1005.26 1005.52 1005.85 1006.16 1006.41 1006.57 1006.70 1006.88 1007.20 1007.71 1008.44 1009.37 1010.41 1011.46 1012.40 1013.17 1013.73 1014.09 1014.32 1014.50 1014.70 1014.97 1015.33 1015.73 1016.12 1016.45 1016.68 1016.79 1016.79 1016.75 1016.72 1016.73 1016.81 1016.95 1017.09 1017.21 1017.24 1017.18
1008.31 1008.55 1008.54 1008.28 1007.80 1007.17 1006.50 1005.90 1005.49 1005.31 1005.37 1005.62 1005.97 1006.32 1006.60 1006.77 1006.84 1006.89 1007.01 1007.28 1007.77 1008.49 1009.41 1010.43 1011.45 1012.35 1013.07 1013.58 1013.91 1014.12 1014.30 1014.51 1014.81 1015.20 1015.64 1016.07 1016.43 1016.69 1016.82 1016.85 1016.84 1016.82 1016.84 1016.93 1017.06 1017.20 1017.30 1017.33 1017.26
1008.02 1008.08 1007.92 1007.56 1007.04 1006.46 1005.92 1005.52 1005.33 1005.39 1005.65 1006.04 1006.47 1006.85 1007.09 1007.20 1007.19 1007.16 1007.20 1007.42 1007.87 1008.55 1009.44 1010.42 1011.39 1012.24 1012.90 1013.36 1013.65 1013.83 1014.00 1014.23 1014.55 1014.96 1015.43 1015.90 1016.30 1016.59 1016.75 1016.82 1016.83 1016.83 1016.87 1016.96 1017.09 1017.23 1017.32 1017.35 1017.29
1007.71 1007.60 1007.31 1006.86 1006.33 1005.82 1005.41 1005.19 1005.21 1005.46 1005.90 1006.42 1006.92 1007.31 1007.54 1007.59 1007.52 1007.42 1007.41 1007.57 1007.97 1008.61 1009.44 1010.37 1011.27 1012.06 1012.67 1013.08 1013.34 1013.50 1013.67 1013.90 1014.24 1014.68 1015.17 1015.66 1016.08 1016.40 1016.60 1016.70 1016.73 1016.76 1016.82 1016.92 1017.05 1017.18 1017.28 1017.31 1017.26
1007.46 1007.22 1006.81 1006.30 1005.77 1005.31 1005.01 1004.93 1005.10 1005.51 1006.07 1006.68 1007.23 1007.63 1007.84 1007.87 1007.76 1007.62 1007.57 1007.69 1008.05 1008.64 1009.41 1010.27 1011.12 1011.84 1012.40 1012.78 1013.02 1013.19 1013.36 1013.60 1013.96 1014.40 1014.91 1015.41 1015.85 1016.19 1016.41 1016.53 1016.59 1016.64 1016.72 1016.83 1016.96 1017.10 1017.21 1017.24 1017.21
1007.32 1006.98 1006.49 1005.94 1005.40 1004.98 1004.75 1004.76 1005.02 1005.51 1006.13 1006.77 1007.34 1007.75 1007.96 1007.98 1007.86 1007.72 1007.66 1007.76 1008.08 1008.63 1009.34 1010.14 1010.92 1011.61 1012.13 1012.50 1012.74 1012.93 1013.12 1013.38 1013.75 1014.20 1014.71 1015.21 1015.66 1016.00 1016.23 1016.37 1016.46 1016.52 1016.61 1016.74 1016.89 1017.04 1017.15 1017.20 1017.18
1007.30 1006.90 1006.37 1005.80 1005.26 1004.85 1004.65 1004.69 1004.97 1005.47 1006.08 1006.72 1007.27 1007.68 1007.89 1007.92 1007.83 1007.71 1007.66 1007.76 1008.07 1008.57 1009.23 1009.97 1010.71 1011.36 1011.88 1012.26 1012.53 1012.75 1012.98 1013.27 1013.65 1014.11 1014.60 1015.10 1015.53 1015.87 1016.11 1016.26 1016.36 1016.45 1016.56 1016.70 1016.86 1017.02 1017.15 1017.22 1017.21
1007.38 1006.96 1006.42 1005.84 1005.31 1004.91 1004.70 1004.72 1004.96 1005.40 1005.96 1006.54 1007.06 1007.45 1007.68 1007.74 1007.70 1007.63 1007.61 1007.73 1008.02 1008.49 1009.10 1009.80 1010.50 1011.13 1011.66 1012.07 1012.40 1012.67 1012.95 1013.27 1013.67 1014.12 1014.60 1015.07 1015.49 1015.82 1016.06 1016.22 1016.34 1016.45 1016.57 1016.73 1016.91 1017.09 1017.23 1017.31 1017.32
1007.50 1007.09 1006.56 1006.01 1005.50 1005.10 1004.87 1004.84 1005.01 1005.36 1005.83 1006.33 1006.80 1007.17 1007.41 1007.53 1007.54 1007.53 1007.56 1007.70 1007.98 1008.42 1008.99 1009.64 1010.31 1010.94 1011.50 1011.96 1012.35 1012.69 1013.02 1013.38 1013.78 1014.23 1014.68 1015.12 1015.51 1015.83 1016.07 1016.25 1016.38 1016.51 1016.66 1016.84 1017.04 1017.23 1017.39 1017.48 1017.50
1007.60 1007.21 1006.73 1006.23 1005.76 1005.38 1005.13 1005.05 1005.14 1005.38 1005.74 1006.15 1006.57 1006.92 1007.19 1007.35 1007.44 1007.50 1007.58 1007.73 1008.00 1008.40 1008.93 1009.54 1010.19 1010.83 1011.41 1011.93 1012.39 1012.79 1013.18 1013.56 1013.97 1014.39 1014.82 1015.22 1015.58 1015.88 1016.12 1016.31 1016.48 1016.63 1016.81 1017.00 1017.21 1017.42 1017.59 1017.70 1017.73
1007.62 1007.27 1006.86 1006.44 1006.04 1005.71 1005.46 1005.34 1005.35 1005.50 1005.75 1006.08 1006.44 1006.78 1007.08 1007.30 1007.46 1007.58 1007.70 1007.87 1008.13 1008.49 1008.97 1009.53 1010.16 1010.80 1011.42 1012.00 1012.51 1012.98 1013.40 1013.80 1014.19 1014.58 1014.96 1015.32 1015.65 1015.94 1016.18 1016.39 1016.58 1016.77 1016.97 1017.18 1017.41 1017.62 1017.80 1017.92 1017.97
1007.52 1007.23 1006.92 1006.61 1006.32 1006.06 1005.85 1005.71 1005.66 1005.72 1005.89 1006.14 1006.45 1006.79 1007.11 1007.40 1007.62 1007.80 1007.97 1008.15 1008.38 1008.70 1009.13 1009.65 1010.25 1010.89 1011.54 1012.15 1012.72 1013.23 1013.67 1014.07 1014.44 1014.78 1015.10 1015.41 1015.70 1015.97 1016.22 1016.45 1016.67 1016.89 1017.12 1017.35 1017.58 1017.80 1017.98 1018.12 1018.19
1007.30 1007.09 1006.90 1006.74 1006.59 1006.44 1006.29 1006.16 1006.08 1006.07 1006.15 1006.34 1006.61 1006.95 1007.30 1007.63 1007.93 1008.16 1008.36 1008.54 1008.76 1009.03 1009.40 1009.88 1010.45 1011.08 1011.74 1012.39 1012.99 1013.53 1013.98 1014.36 1014.68 1014.96 1015.22 1015.47 1015.72 1015.98 1016.23 1016.48 1016.73 1016.98 1017.23 1017.47 1017.71 1017.92 1018.11 1018.27 1018.36
1006.97 1006.88 1006.85 1006.87 1006.88 1006.86 1006.79 1006.68 1006.58 1006.51 1006.52 1006.65 1006.88 1007.21 1007.58 1007.96 1008.31 1008.60 1008.83 1009.02 1009.21 1009.45 1009.77 1010.20 1010.74 1011.36 1012.03 1012.69 1013.31 1013.85 1014.30 1014.65 1014.92 1015.13 1015.33 1015.52 1015.72 1015.95 1016.21 1016.48 1016.75 1017.03 1017.29 1017.55 1017.78 1018.00 1018.19 1018.35 1018.48
1006.59 1006.65 1006.81 1007.03 1007.22 1007.33 1007.35 1007.26 1007.13 1007.00 1006.94 1007.00 1007.19 1007.49 1007.88 1008.31 1008.70 1009.04 1009.31 1009.51 1009.69 1009.90 1010.18 1010.57 1011.07 1011.67 1012.34 1013.01 1013.63 1014.18 1014.61 1014.92 1015.14 1015.30 1015.42 1015.56 1015.72 1015.93 1016.18 1016.46 1016.75 1017.04 1017.32 1017.58 1017.81 1018.02 1018.21 1018.38 1018.53
1006.21 1006.45 1006.82 1007.24 1007.61 1007.85 1007.93 1007.86 1007.69 1007.49 1007.34 1007.31 1007.44 1007.72 1008.12 1008.57 1009.02 1009.40 1009.71 1009.93 1010.12 1010.31 1010.56 1010.91 1011.39 1011.97 1012.62 1013.29 1013.92 1014.46 1014.88 1015.16 1015.34 1015.44 1015.52 1015.60 1015.72 1015.91 1016.15 1016.43 1016.74 1017.04 1017.32 1017.58 1017.80 1018.00 1018.19 1018.36 1018.54
1005.87 1006.31 1006.90 1007.51 1008.03 1008.37 1008.50 1008.42 1008.18 1007.89 1007.64 1007.52 1007.58 1007.82 1008.21 1008.68 1009.17 1009.61 1009.97 1010.23 1010.43 1010.62 1010.86 1011.19 1011.64 1012.20 1012.84 1013.50 1014.13 1014.66 1015.07 1015.34 1015.50 1015.56 1015.60 1015.65 1015.74 1015.91 1016.14 1016.42 1016.72 1017.03 1017.31 1017.56 1017.77 1017.96 1018.13 1018.31 1018.50
1005.61 1006.25 1007.03 1007.80 1008.44 1008.86 1008.99 1008.87 1008.55 1008.15 1007.79 1007.57 1007.54 1007.74 1008.12 1008.61 1009.15 1009.65 1010.06 1010.37 1010.60 1010.81 1011.04 1011.36 1011.79 1012.33 1012.95 1013.60 1014.22 1014.76 1015.17 1015.44 1015.59 1015.64 1015.66 1015.69 1015.77 1015.92 1016.14 1016.41 1016.71 1017.01 1017.29 1017.53 1017.73 1017.90 1018.06 1018.23 1018.42
1005.43 1006.25 1007.18 1008.07 1008.79 1009.22 1009.34 1009.15 1008.74 1008.22 1007.75 1007.43 1007.33 1007.48 1007.84 1008.36 1008.94 1009.50 1009.98 1010.35 1010.63 1010.87 1011.11 1011.42 1011.83 1012.35 1012.95 1013.59 1014.20 1014.74 1015.16 1015.44 1015.60 1015.66 1015.69 1015.71 1015.79 1015.93 1016.14 1016.41 1016.70 1016.99 1017.26 1017.48 1017.67 1017.83 1017.97 1018.13 1018.30
1005.32 1006.27 1007.30 1008.25 1008.99 1009.41 1009.47 1009.21 1008.70 1008.09 1007.51 1007.11 1006.95 1007.06 1007.42 1007.96 1008.59 1009.21 1009.76 1010.20 1010.54 1010.82 1011.08 1011.39 1011.79 1012.28 1012.86 1013.47 1014.08 1014.61 1015.04 1015.34 1015.52 1015.61 1015.66 1015.70 1015.79 1015.93 1016.13 1016.39 1016.68 1016.96 1017.21 1017.43 1017.60 1017.74 1017.87 1018.00 1018.16
1005.26 1006.27 1007.34 1008.30 1009.01 1009.37 1009.36 1009.02 1008.43 1007.74 1007.10 1006.63 1006.43 1006.53 1006.90 1007.47 1008.15 1008.83 1009.45 1009.96 1010.37 1010.69 1010.98 1011.30 1011.69 1012.16 1012.70 1013.29 1013.87 1014.40 1014.84 1015.16 1015.37 1015.50 1015.58 1015.65 1015.75 1015.90 1016.11 1016.36 1016.63 1016.90 1017.14 1017.35 1017.51 1017.64 1017.75 1017.86 1017.99
1005.22 1006.23 1007.26 1008.16 1008.80 1009.08 1009.00 1008.58 1007.93 1007.20 1006.53 1006.05 1005.84 1005.94 1006.33 1006.93 1007.65 1008.39 1009.08 1009.66 1010.13 1010.51 1010.84 1011.17 1011.55 1011.99 1012.50 1013.06 1013.61 1014.13 1014.57 1014.91 1015.15 1015.32 1015.44 1015.55 1015.68 1015.85 1016.06 1016.31 1016.57 1016.82 1017.05 1017.24 1017.39 1017.50 1017.60 1017.69 1017.79
1005.19 1006.13 1007.07 1007.85 1008.37 1008.56 1008.39 1007.92 1007.25 1006.51 1005.85 1005.39 1005.20 1005.33 1005.74 1006.37 1007.13 1007.92 1008.66 1009.31 1009.84 1010.27 1010.64 1010.99 1011.37 1011.80 1012.28 1012.80 1013.32 1013.81 1014.25 1014.61 1014.88 1015.09 1015.26 1015.41 1015.57 1015.76 1015.98 1016.22 1016.47 1016.71 1016.92 1017.10 1017.23 1017.34 1017.42 1017.49 1017.57
1005.17 1005.99 1006.77 1007.39 1007.77 1007.83 1007.59 1007.08 1006.42 1005.71 1005.10 1004.69 1004.55 1004.71 1005.15 1005.80 1006.58 1007.40 1008.18 1008.87 1009.46 1009.94 1010.36 1010.74 1011.13 1011.55 1012.01 1012.50 1012.99 1013.46 1013.89 1014.25 1014.56 1014.80 1015.02 1015.21 1015.41 1015.62 1015.85 1016.09 1016.33 1016.56 1016.75 1016.91 1017.03 1017.12 1017.19 1017.25 1017.31
Thickness
5841 5843 5843 5836 5818 5805 5800 5825 5847 5845 5842 5851 5852 5844 5828 5814 5803 5788 5821 5836 5831 5820 5810 5803 5799 5795 5792 5788 5785 5782 5779 5777 5774 5772 5770 5769 5767 5766 5765 5764 5763 5762 5761 5760 5760 5759 5758 5758 5757
5845 5848 5841 5829 5809 5793 5804 5829 5837 5840 5848 5853 5849 5843 5828 5816 5825 5821 5827 5830 5827 5817 5809 5803 5796 5793 5789 5786 5783 5780 5778 5775 5773 5771 5769 5767 5765 5764 5763 5762 5761 5760 5759 5759 5758 5757 5756 5756 5755
5843 5847 5831 5822 5812 5810 5817 5836 5841 5849 5855 5850 5841 5840 5828 5816 5822 5824 5828 5829 5823 5815 5807 5799 5794 5790 5787 5784 5781 5778 5775 5773 5771 5769 5767 5765 5763 5762 5760 5760 5759 5758 5757 5756 5755 5754 5754 5753 5753
5841 5839 5830 5819 5816 5837 5844 5848 5850 5847 5847 5847 5839 5824 5823 5829 5827 5828 5829 5827 5819 5812 5804 5795 5791 5787 5784 5781 5778 5776 5773 5771 5768 5766 5764 5763 5761 5760 5758 5757 5756 5755 5755 5754 5753 5752 5752 5751 5751
5842 5829 5815 5812 5825 5846 5855 5856 5853 5841 5838 5840 5833 5810 5805 5824 5831 5829 5826 5822 5815 5809 5800 5792 5788 5784 5781 5778 5776 5773 5771 5768 5766 5764 5762 5761 5759 5758 5756 5755 5754 5753 5752 5751 5751 5750 5749 5749 5749
5829 5827 5808 5809 5830 5847 5853 5856 5850 5840 5836 5836 5827 5809 5801 5819 5821 5822 5823 5818 5814 5806 5798 5789 5784 5781 5778 5775 5773 5771 5768 5766 5764 5762 5760 5758 5757 5755 5754 5753 5752 5751 5750 5749 5748 5748 5747 5747 5748
5820 5815 5811 5824 5833 5839 5846 5853 5844 5834 5827 5826 5826 5805 5798 5808 5815 5818 5817 5813 5809 5802 5794 5787 5782 5778 5775 5773 5770 5768 5766 5763 5761 5759 5758 5756 5755 5753 5752 5751 5750 5749 5747 5747 5746 5745 5745 5745 5746
5834 5819 5814 5827 5831 5834 5848 5848 5845 5837 5827 5836 5828 5799 5789 5801 5812 5814 5811 5807 5802 5798 5791 5786 5780 5776 5773 5770 5767 5765 5763 5761 5759 5757 5755 5754 5753 5752 5751 5749 5748 5747 5745 5744 5744 5743 5743 5744 5744
5839 5811 5807 5825 5831 5836 5848 5840 5840 5844 5832 5826 5821 5810 5804 5806 5809 5805 5799 5796 5791 5790 5788 5784 5778 5774 5773 5769 5765 5762 5760 5758 5756 5755 5753 5752 5751 5751 5749 5748 5746 5745 5744 5743 5742 5741 5741 5742 5743
5830 5807 5817 5839 5843 5841 5842 5836 5834 5827 5816 5809 5806 5805 5805 5803 5799 5794 5790 5786 5783 5781 5782 5781 5777 5774 5773 5770 5763 5762 5760 5756 5755 5754 5752 5751 5751 5750 5748 5745 5744 5743 5742 5741 5741 5740 5740 5740 5742
5831 5820 5832 5842 5846 5842 5836 5834 5835 5819 5802 5798 5792 5791 5794 5796 5791 5788 5786 5784 5780 5779 5778 5777 5775 5773 5771 5768 5763 5762 5760 5756 5755 5754 5751 5750 5749 5747 5745 5743 5742 5741 5740 5740 5739 5740 5740 5741 5742
5831 5833 5838 5838 5843 5837 5831 5831 5825 5817 5807 5810 5803 5797 5793 5789 5785 5783 5779 5777 5775 5774 5774 5773 5771 5768 5767 5766 5764 5762 5759 5756 5756 5752 5751 5749 5747 5745 5744 5743 5741 5740 5740 5739 5738 5738 5739 5740 5741
5829 5831 5838 5840 5838 5835 5831 5824 5820 5815 5816 5813 5807 5798 5791 5785 5782 5781 5778 5774 5770 5768 5768 5768 5768 5764 5763 5761 5760 5760 5758 5756 5755 5751 5749 5747 5745 5743 5742 5740 5740 5740 5739 5738 5737 5736 5737 5738 5738
5834 5834 5835 5836 5833 5833 5823 5820 5816 5811 5814 5807 5800 5793 5788 5781 5778 5775 5771 5768 5766 5765 5764 5764 5763 5761 5760 5757 5755 5756 5755 5753 5752 5750 5747 5745 5744 5742 5740 5739 5738 5738 5737 5736 5736 5735 5735 5736 5736
5837 5824 5820 5822 5823 5826 5821 5803 5806 5808 5807 5798 5794 5788 5783 5778 5774 5770 5766 5764 5763 5762 5761 5760 5758 5756 5756 5754 5754 5754 5753 5752 5750 5747 5745 5743 5742 5740 5739 5738 5737 5736 5736 5735 5734 5734 5734 5734 5734
5822 5808 5794 5812 5823 5826 5809 5786 5802 5810 5802 5791 5787 5782 5776 5771 5768 5768 5765 5763 5762 5760 5757 5756 5756 5753 5752 5752 5751 5752 5751 5749 5748 5745 5742 5741 5740 5739 5738 5737 5736 5735 5735 5734 5733 5732 5731 5730 5731
5801 5792 5793 5808 5826 5824 5810 5793 5802 5808 5800 5787 5781 5776 5772 5766 5764 5763 5763 5761 5759 5756 5752 5751 5751 5749 5749 5749 5749 5749 5748 5747 5746 5743 5741 5739 5738 5738 5737 5736 5735 5734 5734 5733 5732 5730 5729 5727 5728
5791 5798 5803 5808 5823 5821 5807 5798 5803 5806 5799 5788 5778 5772 5768 5761 5758 5759 5758 5757 5755 5752 5749 5747 5747 5747 5746 5746 5745 5744 5744 5743 5743 5741 5739 5737 5737 5736 5735 5735 5734 5733 5732 5730 5729 5728 5728 5727 5727
5812 5808 5804 5813 5829 5818 5806 5800 5801 5803 5796 5786 5776 5769 5764 5759 5758 5757 5755 5754 5751 5747 5744 5743 5743 5743 5743 5741 5740 5738 5737 5739 5739 5738 5737 5736 5735 5735 5734 5734 5732 5732 5730 5728 5728 5726 5726 5726 5727
5812 5803 5803 5812 5824 5814 5804 5800 5805 5801 5793 5789 5779 5770 5764 5759 5756 5754 5752 5750 5747 5743 5742 5742 5741 5741 5741 5740 5740 5738 5738 5738 5738 5736 5735 5734 5734 5734 5734 5733 5732 5730 5728 5727 5727 5725 5724 5725 5725
5807 5803 5801 5802 5813 5817 5803 5789 5792 5797 5797 5791 5784 5776 5770 5762 5756 5753 5751 5749 5746 5742 5741 5742 5740 5739 5740 5739 5739 5737 5736 5735 5734 5733 5732 5733 5733 5733 5732 5732 5731 5730 5729 5726 5725 5725 5723 5720 5723
5798 5814 5811 5806 5796 5788 5791 5763 5779 5791 5787 5786 5782 5776 5772 5768 5762 5756 5752 5748 5746 5744 5744 5743 5741 5739 5739 5738 5737 5734 5732 5730 5732 5732 5732 5732 5732 5732 5731 5731 5730 5729 5728 5726 5725 5723 5723 5720 5718
5808 5819 5811 5802 5791 5780 5782 5772 5778 5791 5777 5780 5782 5778 5774 5771 5765 5759 5754 5750 5749 5747 5745 5743 5741 5739 5738 5738 5737 5735 5734 5734 5734 5733 5731 5731 5730 5731 5731 5730 5729 5728 5727 5725 5724 5722 5721 5720 5717
5818 5810 5800 5792 5775 5750 5765 5766 5768 5785 5783 5784 5786 5783 5778 5773 5768 5762 5757 5753 5750 5749 5746 5744 5740 5738 5738 5737 5737 5735 5734 5734 5733 5731 5729 5729 5730 5730 5730 5729 5728 5727 5726 5724 5722 5721 5719 5717 5715
5809 5787 5762 5749 5737 5735 5763 5766 5776 5801 5806 5800 5793 5788 5783 5777 5770 5763 5757 5752 5749 5747 5746 5743 5739 5737 5737 5737 5736 5736 5736 5735 5733 5732 5730 5731 5731 5729 5729 5729 5726 5725 5724 5722 5720 5718 5717 5715 5713
5800 5790 5759 5739 5737 5745 5755 5759 5787 5812 5816 5812 5804 5796 5787 5779 5773 5766 5761 5756 5752 5749 5746 5743 5740 5738 5738 5737 5736 5737 5736 5736 5735 5734 5734 5733 5733 5732 5729 5727 5725 5724 5722 5721 5719 5717 5715 5713 5711
5793 5793 5799 5777 5768 5756 5752 5766 5783 5806 5808 5806 5801 5795 5788 5782 5776 5770 5765 5760 5756 5752 5749 5746 5741 5739 5738 5738 5737 5737 5737 5737 5736 5735 5735 5735 5733 5731 5728 5726 5724 5722 5721 5719 5716 5715 5713 5711 5709
5809 5803 5790 5774 5752 5745 5745 5749 5756 5774 5788 5797 5797 5794 5790 5786 5780 5774 5769 5764 5760 5757 5753 5749 5744 5741 5740 5739 5739 5738 5737 5737 5736 5735 5734 5734 5732 5730 5727 5725 5723 5721 5718 5716 5714 5712 5711 5708 5706
5795 5793 5787 5780 5774 5753 5737 5744 5776 5780 5791 5795 5797 5798 5794 5789 5784 5778 5773 5769 5764 5760 5755 5751 5747 5743 5741 5741 5740 5739 5737 5736 5735 5734 5733 5732 5730 5727 5725 5723 5721 5718 5716 5714 5711 5710 5708 5705 5703
5798 5794 5788 5767 5764 5768 5754 5754 5793 5791 5801 5803 5803 5802 5799 5794 5790 5784 5777 5771 5766 5762 5758 5754 5750 5746 5744 5743 5741 5739 5738 5736 5734 5732 5732 5730 5728 5725 5723 5721 5718 5716 5714 5712 5709 5706 5706 5703 5700